Twentynine Palms, CA

3:12 PM PDT on August 17, 2017 (GMT -0700)
Twentynine Palms Expeditionary Air Field

Weather History for KNXP - July, 2013

Change the Weather History Date:

Thursday, July 25, 2013

  Actual Average Record
Temperature  
Mean Temperature 94 °F -  
Max Temperature 106 °F 100 °F 111 °F (1996)
Min Temperature 84 °F 75 °F 69 °F (1999)
Cooling Degree Days 30    
Growing Degree Days 44 (Base 50)    
Moisture  
Dew Point 50 °F    
Average Humidity 23    
Maximum Humidity 39    
Minimum Humidity 14    
Precipitation  
Precipitation 0.00 in - - ()
Sea Level Pressure  
Sea Level Pressure 29.88 in    
Wind  
Wind Speed 10 mph (WSW)    
Max Wind Speed 22 mph    
Max Gust Speed 26 mph    
Visibility 10 miles    
Events      
Averages and records for this station are not official NWS values.
T = Trace of Precipitation, MM = Missing Value Source: NWS Daily Summary

Daily Weather History Graph

Daily Weather History Graph

Search for Another Location

Airport or City:

Trip Planner

Search our weather history database for the weather conditions in past years. The results will help you decide how hot, cold, wet, or windy it might be!

Date:

Astronomy

Jul. 25, 2013 Rise Set
Actual Time 5:50 AM PDT 7:51 PM PDT
Civil Twilight 5:22 AM PDT 8:19 PM PDT
Nautical Twilight 4:48 AM PDT 8:53 PM PDT
Astronomical Twilight 4:12 AM PDT 9:29 PM PDT
Moon 9:48 PM PDT (7/25) 9:13 AM PDT (7/25)
Length of Visible Light 14h 56m
Length of Day
14h 00m
Waning Gibbous, 87% of the Moon is Illuminated
Jul 25
Waning Gibbous
Jul 29
Last Quarter
Aug 6
New
Aug 14
First Quarter
Aug 20
Full

Hourly Weather History & Observations

Time (PDT) Temp. Heat Index Dew Point Humidity Pressure Visibility Wind Dir Wind Speed Gust Speed Precip Events Conditions
12:56 AM 90.0 °F - 48.9 °F 24% 29.83 in 10.0 mi WNW 5.8 mph - N/A   Partly Cloudy
1:56 AM 89.1 °F - 48.9 °F 25% 29.83 in 10.0 mi WNW 9.2 mph - N/A   Partly Cloudy
2:56 AM 87.1 °F - 48.9 °F 27% 29.83 in 10.0 mi West 9.2 mph - N/A   Clear
3:56 AM 86.0 °F - 48.0 °F 27% 29.83 in 10.0 mi West 9.2 mph - N/A   Clear
4:56 AM 86.0 °F - 48.0 °F 27% 29.84 in 10.0 mi WNW 9.2 mph - N/A   Clear
5:56 AM 84.9 °F - 48.0 °F 28% 29.86 in 10.0 mi West 10.4 mph - N/A   Clear
6:56 AM 84.9 °F - 48.0 °F 28% 29.87 in 10.0 mi NW 4.6 mph - N/A   Clear
7:56 AM 90.0 °F - 46.9 °F 23% 29.89 in 10.0 mi WNW 11.5 mph - N/A   Scattered Clouds
8:56 AM 91.9 °F - 46.9 °F 21% 29.90 in 10.0 mi North 6.9 mph - N/A   Scattered Clouds
9:56 AM 96.1 °F - 46.0 °F 18% 29.89 in 10.0 mi NE 4.6 mph - N/A   Scattered Clouds
10:56 AM 99.0 °F - 45.0 °F 16% 29.90 in 10.0 mi North 3.5 mph - N/A   Scattered Clouds
11:56 AM 100.9 °F - 43.0 °F 14% 29.89 in 10.0 mi Variable 6.9 mph - N/A   Mostly Cloudy
12:56 PM 102.0 °F - 44.1 °F 14% 29.88 in 10.0 mi SSE 5.8 mph 18.4 mph N/A   Scattered Clouds
1:56 PM 102.9 °F - 46.0 °F 15% 29.86 in 10.0 mi ESE 6.9 mph - N/A   Scattered Clouds
2:38 PM 105.8 °F 104.3 °F 53.6 °F 18% 29.98 in 10.0 mi SW 18.4 mph 25.3 mph N/A   Clear
2:56 PM 100.9 °F 99.1 °F 54.0 °F 21% 29.85 in 10.0 mi WSW 21.9 mph - N/A   Mostly Cloudy
3:56 PM 104.0 °F - 51.1 °F 17% 29.83 in 10.0 mi SW 18.4 mph - N/A   Scattered Clouds
4:56 PM 100.9 °F 98.7 °F 53.1 °F 20% 29.82 in 10.0 mi SW 17.3 mph - N/A   Mostly Cloudy
5:56 PM 100.9 °F 98.7 °F 53.1 °F 20% 29.83 in 10.0 mi SSW 18.4 mph - N/A   Mostly Cloudy
6:56 PM 98.1 °F 96.1 °F 54.0 °F 23% 29.85 in 10.0 mi SW 17.3 mph - N/A   Mostly Cloudy
7:56 PM 95.0 °F 92.7 °F 54.0 °F 25% 29.86 in 10.0 mi SW 21.9 mph 26.5 mph N/A   Mostly Cloudy
8:56 PM 91.9 °F 90.0 °F 55.0 °F 29% 29.88 in 10.0 mi SW 19.6 mph - N/A   Mostly Cloudy
9:12 PM 91.4 °F 89.4 °F 55.4 °F 29% 30.02 in 10.0 mi SW 19.6 mph 26.5 mph N/A   Mostly Cloudy
9:56 PM 91.9 °F - 52.0 °F 26% 29.91 in 10.0 mi SW 16.1 mph - N/A   Mostly Cloudy
10:56 PM 91.0 °F - 51.1 °F 25% 29.94 in 7.0 mi WSW 20.7 mph 25.3 mph 0.00 in   Mostly Cloudy
11:56 PM 87.1 °F 86.5 °F 59.0 °F 39% 29.94 in 10.0 mi West 6.9 mph - N/A   Clear